Dubrovnik, Croatia

5:53 PM CET on December 11, 2017 (GMT +0100)
Cilipi

Weather History for LDDU - December, 2017

Change the Weather History Date:

Monday, December 4, 2017

  Actual Average (LYTV) Record (LYTV)
Temperature  
Mean Temperature 47 °F -  
Max Temperature 52 °F 57 °F 64 °F (2000)
Min Temperature 42 °F 40 °F 29 °F (2013)
Degree Days  
Heating Degree Days 18    
Moisture  
Dew Point 34 °F    
Average Humidity 65    
Maximum Humidity 100    
Minimum Humidity 38    
Precipitation  
Precipitation 0.00 in - - ()
Sea Level Pressure  
Sea Level Pressure 30.19 in    
Wind  
Wind Speed 8 mph ()    
Max Wind Speed 28 mph    
Max Gust Speed -    
Visibility 9.1 miles    
Events Rain    
Averages and records for this station are not official NWS values.
T = Trace of Precipitation, MM = Missing Value Source: Averaged Metar Reports

Daily Weather History Graph

Daily Weather History Graph

Search for Another Location

Airport or City:

Trip Planner

Search our weather history database for the weather conditions in past years. The results will help you decide how hot, cold, wet, or windy it might be!

Date:

Astronomy

Dec. 04, 2017 Rise Set
Actual Time 7:00 AM CET 4:13 PM CET
Civil Twilight 6:28 AM CET 4:45 PM CET
Nautical Twilight 5:53 AM CET 5:20 PM CET
Astronomical Twilight 5:19 AM CET 5:54 PM CET
Moon 5:25 PM CET (12/4) 7:27 AM CET (12/4)
Length of Visible Light 10h 17m
Length of Day
9h 13m
Full, 99% of the Moon is Illuminated
Dec 4
Full
Dec 10
Last Quarter
Dec 18
New
Dec 26
First Quarter
Jan 2
Full

Hourly Weather History & Observations

Time (CET) Temp. Windchill Dew Point Humidity Pressure Visibility Wind Dir Wind Speed Gust Speed Precip Events Conditions
12:00 AM 46.4 °F 43.5 °F 37.4 °F 71% 30.12 in 6.2 mi North 5.8 mph - N/A   Scattered Clouds
12:30 AM 44.6 °F - 41.0 °F 87% 30.12 in 6.2 mi Variable 1.2 mph - N/A   Mostly Cloudy
1:00 AM 44 °F - 43 °F 93% 30.14 in 16 mi East 4.5 mph - - Rain Light Rain
1:00 AM 42.8 °F 39.3 °F 42.8 °F 100% 30.12 in 6.2 mi East 5.8 mph - N/A Rain Light Rain
1:30 AM 42.8 °F 37.5 °F 42.8 °F 100% 30.12 in 6.2 mi East 9.2 mph - N/A   Scattered Clouds
2:00 AM 44.6 °F 40.2 °F 42.8 °F 93% 30.12 in 6.2 mi East 8.1 mph - N/A Rain Light Rain
2:30 AM 44.6 °F 40.2 °F 42.8 °F 93% 30.12 in 6.2 mi East 8.1 mph - N/A   Scattered Clouds
3:00 AM 42.8 °F 41.1 °F 42.8 °F 100% 30.12 in 6.2 mi East 3.5 mph - N/A   Scattered Clouds
3:30 AM 42.8 °F - 42.8 °F 100% 30.12 in 6.2 mi Variable 1.2 mph - N/A   Scattered Clouds
4:00 AM 43 °F - 38 °F 78% 30.16 in 16 mi NNE 6.7 mph - -   Scattered Clouds
4:00 AM 42.8 °F 40.1 °F 39.2 °F 87% 30.12 in 6.2 mi NNE 4.6 mph - N/A   Partly Cloudy
4:30 AM 42.8 °F 37.5 °F 37.4 °F 81% 30.12 in 6.2 mi North 9.2 mph - N/A   Partly Cloudy
5:00 AM 44.6 °F 39.7 °F 35.6 °F 71% 30.12 in 6.2 mi North 9.2 mph - N/A   Partly Cloudy
5:30 AM 42.8 °F 37.5 °F 35.6 °F 76% 30.15 in - NNE 9.2 mph - N/A   Clear
6:00 AM 42.8 °F 37.0 °F 35.6 °F 76% 30.15 in - NNE 10.4 mph - N/A   Clear
6:30 AM 42.8 °F 37.5 °F 33.8 °F 70% 30.15 in - NNE 9.2 mph - N/A   Clear
7:00 AM 43 °F - 35 °F 63% 30.18 in 16 mi NNE 11.2 mph - -   Partly Cloudy
7:00 AM 42.8 °F 37.5 °F 35.6 °F 76% 30.15 in - NNE 9.2 mph - N/A   Clear
7:30 AM 42.8 °F 37.5 °F 33.8 °F 70% 30.15 in - NNE 9.2 mph - N/A   Clear
8:00 AM 42.8 °F 36.6 °F 33.8 °F 70% 30.18 in - NNE 11.5 mph - N/A   Clear
8:30 AM 44.6 °F 38.8 °F 35.6 °F 71% 30.18 in - NNE 11.5 mph - N/A   Clear
9:00 AM 46.4 °F 42.9 °F 35.6 °F 66% 30.18 in - NE 6.9 mph - N/A   Clear
9:30 AM 46.4 °F 41.9 °F 35.6 °F 66% 30.18 in - NNE 9.2 mph - N/A   Clear
10:00 AM 48 °F - 36 °F 53% 30.22 in 19 mi NE 6.7 mph - -   Scattered Clouds
10:00 AM 48.2 °F - 35.6 °F 62% 30.21 in 6.2 mi NE 6.9 mph - N/A   Partly Cloudy
10:30 AM 51.8 °F - 37.4 °F 58% 30.21 in 6.2 mi Variable 2.3 mph - N/A   Partly Cloudy
11:00 AM 50.0 °F - 37.4 °F 62% 30.21 in 6.2 mi WNW 5.8 mph - N/A   Partly Cloudy
11:30 AM 51.8 °F - 37.4 °F 58% 30.21 in 6.2 mi WNW 5.8 mph - N/A   Partly Cloudy
12:00 PM 51.8 °F - 35.6 °F 54% 30.18 in 6.2 mi WNW 6.9 mph - N/A   Partly Cloudy
12:30 PM 51.8 °F - 37.4 °F 58% 30.18 in 6.2 mi WNW 9.2 mph - N/A   Partly Cloudy
1:00 PM 52 °F - 37 °F 46% 30.20 in 19 mi West 8.9 mph - -   Scattered Clouds
1:00 PM 51.8 °F - 37.4 °F 58% 30.18 in 6.2 mi West 9.2 mph - N/A   Partly Cloudy
1:30 PM 51.8 °F - 37.4 °F 58% 30.18 in 6.2 mi WNW 10.4 mph - N/A   Partly Cloudy
2:00 PM 50.0 °F - 37.4 °F 62% 30.18 in 6.2 mi WNW 11.5 mph - N/A   Partly Cloudy
2:30 PM 50.0 °F - 35.6 °F 58% 30.18 in 6.2 mi WNW 10.4 mph - N/A   Partly Cloudy
3:00 PM 50.0 °F - 33.8 °F 54% 30.18 in 6.2 mi WNW 10.4 mph - N/A   Partly Cloudy
3:30 PM 50.0 °F - 33.8 °F 54% 30.18 in 6.2 mi WNW 8.1 mph - N/A   Partly Cloudy
4:00 PM 48 °F - 34 °F 47% 30.22 in 19 mi WNW 11.2 mph - -   Scattered Clouds
4:00 PM 48.2 °F - 33.8 °F 58% 30.21 in 6.2 mi WNW 10.4 mph - N/A   Partly Cloudy
4:30 PM 48.2 °F - 33.8 °F 58% 30.21 in - NW 8.1 mph - N/A   Clear
5:30 PM 46.4 °F 44.3 °F 28.4 °F 50% 30.21 in - North 4.6 mph - N/A   Clear
6:00 PM 46.4 °F 42.9 °F 28.4 °F 50% 30.21 in - Variable 6.9 mph - N/A   Clear
6:30 PM 44.6 °F 38.4 °F 30.2 °F 57% 30.21 in - Variable 12.7 mph - N/A   Clear
7:00 PM 44 °F - 30 °F 47% 30.26 in 19 mi NNE 15.7 mph - -  
7:00 PM 44.6 °F 37.4 °F 30.2 °F 57% 30.21 in - NNE 16.1 mph - N/A   Clear
7:30 PM 42.8 °F 33.1 °F 28.4 °F 57% 30.24 in - NNE 25.3 mph - N/A   Clear
8:00 PM 44.6 °F 35.3 °F 21.2 °F 39% 30.24 in - NNE 26.5 mph - N/A   Clear
8:30 PM 42.8 °F 32.7 °F 21.2 °F 42% 30.24 in - NNE 27.6 mph - N/A   Clear
9:00 PM 42.8 °F 33.5 °F 26.6 °F 53% 30.24 in - NNE 23.0 mph - N/A   Clear
9:30 PM 42.8 °F 33.3 °F 26.6 °F 53% 30.24 in - NNE 24.2 mph - N/A   Clear
10:00 PM 43 °F - 26 °F 38% 30.27 in 19 mi NE 8.9 mph - -  
10:00 PM 42.8 °F 37.5 °F 24.8 °F 49% 30.24 in - Variable 9.2 mph - N/A   Clear
10:30 PM 42.8 °F 33.8 °F 24.8 °F 49% 30.24 in - NNE 21.9 mph - N/A   Clear
11:00 PM 42.8 °F 33.8 °F 26.6 °F 53% 30.27 in - NNE 21.9 mph - N/A   Clear
11:30 PM 42.8 °F 33.1 °F 24.8 °F 49% 30.27 in - NNE 25.3 mph - N/A   Clear